Hourly Data Report for July 29, 2016

OTTAWA INTL A
ONTARIO

45°19'00.000" N
75°40'00.000" W
114.90 m
6106001
71628
YOW

Download Data

Hourly Data (July 2016)
Hourly Data Report for July 29, 2016
TIME
LST
Temp Definition
°C
Dew Point Definition
°C
Rel Hum Definition
%
Precip. Amount Definition
mm

Wind Dir Definition
10's deg

Wind Spd Definition
km/h
Visibility Definition
km
Stn Press Definition
kPa
Hmdx Definition


Wind Chill Definition


Weather Definition


00:00 19.8 14.5 71   1 18 24.1 100.03     LegendNANA
01:00 18.9 13.6 71   2 16 24.1 100.04     Clear
02:00 18.5 12.8 69   36 17 24.1 100.04     LegendNANA
03:00 18.0 12.7 71   36 16 24.1 100.07     LegendNANA
04:00 17.0 12.6 75   35 10 24.1 100.10     Mainly Clear
05:00 17.0 13.0 77   35 16 24.1 100.09     LegendNANA
06:00 17.8 13.4 75   1 10 24.1 100.15     LegendNANA
07:00 18.8 13.3 70   1 18 24.1 100.16     Mostly Cloudy
08:00 20.1 13.4 65   36 13 24.1 100.20     LegendNANA
09:00 22.4 13.1 55   1 13 24.1 100.18 25   LegendNANA
10:00 22.6 12.7 53   1 14 24.1 100.21 25   Mostly Cloudy
11:00 23.3 13.1 52   35 10 24.1 100.22 26   LegendNANA
12:00 24.7 12.5 46   34 13 24.1 100.17 27   LegendNANA
13:00 25.5 12.6 44   36 13 24.1 100.17 28   Mostly Cloudy
14:00 24.9 12.7 46   2 18 24.1 100.18 28   LegendNANA
15:00 25.7 12.7 44   34 15 24.1 100.17 28   LegendNANA
16:00 26.1 12.8 43   34 20 24.1 100.18 29   Mainly Clear
17:00 24.6 12.7 47   31 22 24.1 100.20 27   LegendNANA
18:00 23.9 12.1 47   35 17 24.1 100.21 26   LegendNANA
19:00 22.3 12.4 53   36 17 24.1 100.26 25   Mainly Clear
20:00 20.8 12.4 58   35 17 24.1 100.31     LegendNANA
21:00 19.4 12.0 62   36 14 24.1 100.34     LegendNANA
22:00 18.5 11.9 65   36 11 24.1 100.38     Clear
23:00 17.6 11.9 69   36 10 24.1 100.41     LegendNANA

Notes on Data Quality.

Legend

  • E = Estimated
  • M = Missing
  • NA = Not Available*
  • [empty] = Indicates an unobserved value
Date modified: